Satellite: SRMSAT Catalog number: 37841 Epoch time: 12117.63975836 Element set: 137 Inclination: 019.9727 deg RA of node: 314.3630 deg Eccentricity: 0.0011487 Arg of perigee: 341.5112 deg Mean anomaly: 018.4746 deg Mean motion: 14.10133419 rev/day Decay rate: 2.64e-06 rev/day^2 Epoch rev: 2790 Checksum: 282
Satellite: RAX-2 Catalog number: 37853 Epoch time: 12117.59780385 Element set: 160 Inclination: 101.7164 deg RA of node: 134.3111 deg Eccentricity: 0.0249103 Arg of perigee: 137.9982 deg Mean anomaly: 224.0608 deg Mean motion: 14.79469062 rev/day Decay rate: 7.025e-05 rev/day^2 Epoch rev: 2676 Checksum: 298
Satellite: AUBIESAT Catalog number: 37854 Epoch time: 12116.95672912 Element set: 0171 Inclination: 101.7176 deg RA of node: 133.5682 deg Eccentricity: 0.0250795 Arg of perigee: 139.2285 deg Mean anomaly: 222.8000 deg Mean motion: 14.79812386 rev/day Decay rate: 7.538e-05 rev/day^2 Epoch rev: 02666 Checksum: 311
Satellite: HRBE Catalog number: 37855 Epoch time: 12116.96568730 Element set: 0171 Inclination: 101.7179 deg RA of node: 133.5482 deg Eccentricity: 0.0251534 Arg of perigee: 139.3189 deg Mean anomaly: 222.7131 deg Mean motion: 14.79687726 rev/day Decay rate: 7.138e-05 rev/day^2 Epoch rev: 02666 Checksum: 320
Satellite: RS-39 Catalog number: 38051 Epoch time: 12117.45104406 Element set: 281 Inclination: 051.6317 deg RA of node: 046.2328 deg Eccentricity: 0.0010649 Arg of perigee: 210.4147 deg Mean anomaly: 259.9414 deg Mean motion: 15.23423882 rev/day Decay rate: 1.3322e-04 rev/day^2 Epoch rev: 1408 Checksum: 267
Satellite: E-STAR Catalog number: 38079 Epoch time: 12117.29353923 Element set: 176 Inclination: 069.4944 deg RA of node: 074.0266 deg Eccentricity: 0.0757916 Arg of perigee: 313.1377 deg Mean anomaly: 040.8636 deg Mean motion: 14.11867668 rev/day Decay rate: 7.4032e-04 rev/day^2 Epoch rev: 1025 Checksum: 317
Satellite: GOLIAT Catalog number: 38085 Epoch time: 12117.25084711 Element set: 172 Inclination: 069.4928 deg RA of node: 074.2367 deg Eccentricity: 0.0758917 Arg of perigee: 313.3327 deg Mean anomaly: 040.6816 deg Mean motion: 14.11009920 rev/day Decay rate: 6.7288e-04 rev/day^2 Epoch rev: 1024 Checksum: 297
/EX